This demonstration page uses our WeatherBlox Daily Observations layout. Learn more.

Hourly Observations for November 10, 2016

Temp ( °F °C ) Dew Point ( °F °C ) Humidity (%) Winds ( mph kmh ) Pressure ( in mb ) Visibility ( mi km ) Precip ( " mm )
12:15 am 00:15 Partly Cloudy 46 8 37 3 71 71 NNW 13 20 30.12 1020 10 16.09344 0 0
12:35 am 00:35 Partly Cloudy 46 8 36 2 66 66 NNW 14 22 30.12 1020 10 16.09344 0 0
12:55 am 00:55 Mostly Cloudy 46 8 36 2 66 66 NNW 15 24 30.12 1020 10 16.09344 0 0
1:15 am 01:15 Partly Cloudy 46 8 36 2 66 66 N 8 13 30.12 1020 10 16.09344 0 0
1:35 am 01:35 Clear 45 7 36 2 71 71 NNW 6 9 30.12 1020 10 16.09344 0 0
1:55 am 01:55 Clear 45 7 36 2 71 71 NNW 8 13 30.12 1020 10 16.09344 0 0
2:15 am 02:15 Clear 45 7 36 2 71 71 NNW 8 13 30.12 1020 10 16.09344 0 0
2:35 am 02:35 Clear 45 7 36 2 71 71 NNW 8 13 30.12 1020 10 16.09344 0 0
2:55 am 02:55 Clear 45 7 36 2 71 71 NNW 8 13 30.12 1020 10 16.09344 0 0
3:15 am 03:15 Clear 45 7 36 2 71 71 N 7 11 30.12 1020 10 16.09344 0 0
3:35 am 03:35 Clear 45 7 36 2 71 71 NNW 9 15 30.12 1020 10 16.09344 0 0
3:55 am 03:55 Clear 45 7 36 2 71 71 NNW 7 11 30.12 1020 10 16.09344 0 0
4:15 am 04:15 Clear 45 7 36 2 71 71 NNW 8 13 30.12 1020 10 16.09344 0 0
4:35 am 04:35 Clear 45 7 36 2 71 71 NNW 12 19 30.12 1020 10 16.09344 0 0
4:55 am 04:55 Clear 45 7 36 2 71 71 NNW 13 20 30.12 1020 10 16.09344 0 0
5:15 am 05:15 Clear 45 7 36 2 71 71 NNW 8 13 30.12 1020 10 16.09344 0 0
5:35 am 05:35 Clear 45 7 36 2 71 71 NNW 12 19 30.12 1020 10 16.09344 0 0
5:55 am 05:55 Clear 45 7 36 2 71 71 NNW 10 17 30.12 1020 10 16.09344 0 0
6:15 am 06:15 Clear 45 7 36 2 71 71 NNW 9 15 30.15 1021 10 16.09344 0 0
6:35 am 06:35 Clear 45 7 36 2 71 71 NNW 6 9 30.15 1021 10 16.09344 0 0
6:55 am 06:55 Sunny 43 6 36 2 76 76 NW 7 11 30.15 1021 10 16.09344 0 0
7:15 am 07:15 Sunny 43 6 36 2 76 76 NW 8 13 30.15 1021 10 16.09344 0 0
7:35 am 07:35 Sunny 45 7 37 3 76 76 NW 7 11 30.18 1022 10 16.09344 0 0
7:55 am 07:55 Sunny 46 8 37 3 71 71 NNW 6 9 30.18 1022 10 16.09344 0 0
8:15 am 08:15 Sunny 46 8 37 3 71 71 NNW 7 11 30.18 1022 10 16.09344 0 0
8:35 am 08:35 Sunny 48 9 37 3 66 66 NNW 6 9 30.18 1022 10 16.09344 0 0
8:55 am 08:55 Sunny 50 10 37 3 62 62 NNW 10 17 30.18 1022 10 16.09344 0 0
9:15 am 09:15 Sunny 50 10 37 3 62 62 NW 8 13 30.18 1022 10 16.09344 0 0
9:35 am 09:35 Sunny 52 11 37 3 58 58 NW 8 13 30.15 1021 10 16.09344 0 0
9:55 am 09:55 Sunny 52 11 37 3 58 58 NNW 9 15 30.15 1021 10 16.09344 0 0
10:15 am 10:15 Sunny 52 11 37 3 58 58 NW 10 17 30.15 1021 10 16.09344 0 0
10:35 am 10:35 Sunny 54 12 37 3 54 54 NNW 12 19 30.15 1021 10 16.09344 0 0
10:55 am 10:55 Sunny 55 13 37 3 51 51 NNW 12 19 30.15 1021 10 16.09344 0 0
11:15 am 11:15 Sunny 55 13 37 3 51 51 NW 17 28 30.12 1020 10 16.09344 0 0
11:35 am 11:35 Sunny 57 14 37 3 48 48 NW 16 26 30.12 1020 10 16.09344 0 0
11:55 am 11:55 Sunny 57 14 37 3 48 48 NW 14 22 30.09 1019 10 16.09344 0 0
12:15 pm 12:15 Sunny 59 15 39 4 48 48 NNW 12 19 30.09 1019 10 16.09344 0 0
12:35 pm 12:35 Sunny 59 15 39 4 48 48 WNW 8 13 30.09 1019 10 16.09344 0 0
12:55 pm 12:55 Sunny 59 15 37 3 45 45 NW 9 15 30.06 1018 10 16.09344 0 0
1:15 pm 13:15 Sunny 61 16 39 4 45 45 NW 12 19 30.06 1018 10 16.09344 0 0
1:35 pm 13:35 Sunny 61 16 37 3 42 42 WNW 17 28 30.06 1018 10 16.09344 0 0
1:55 pm 13:55 Sunny 61 16 37 3 42 42 NW 13 20 30.06 1018 10 16.09344 0 0
2:15 pm 14:15 Sunny 61 16 37 3 42 42 NW 12 19 30.03 1017 10 16.09344 0 0
2:35 pm 14:35 Sunny 63 17 37 3 39 39 WNW 14 22 30.03 1017 10 16.09344 0 0
2:55 pm 14:55 Sunny 63 17 37 3 39 39 W 13 20 30.03 1017 10 16.09344 0 0
3:15 pm 15:15 Sunny 61 16 37 3 42 42 W 13 20 30 1016 10 16.09344 0 0
3:35 pm 15:35 Sunny 63 17 37 3 39 39 W 8 13 30 1016 10 16.09344 0 0
3:55 pm 15:55 Sunny 61 16 36 2 39 39 W 8 13 30 1016 10 16.09344 0 0
4:15 pm 16:15 Sunny 61 16 36 2 39 39 WSW 5 7 30 1016 10 16.09344 0 0
4:35 pm 16:35 Sunny 61 16 36 2 39 39 WSW 5 7 29.97 1015 10 16.09344 0 0
4:55 pm 16:55 Sunny 59 15 36 2 42 42 WSW 3 6 29.97 1015 10 16.09344 0 0
5:15 pm 17:15 Clear 59 15 34 1 39 39 SSW 5 7 29.97 1015 10 16.09344 0 0
5:35 pm 17:35 Clear 57 14 34 1 41 41 SSW 5 7 29.97 1015 10 16.09344 0 0
5:55 pm 17:55 Clear 55 13 36 2 47 47 SW 6 9 29.97 1015 10 16.09344 0 0
6:15 pm 18:15 Clear 55 13 34 1 44 44 SSW 7 11 29.97 1015 10 16.09344 0 0
6:35 pm 18:35 Clear 55 13 34 1 44 44 SSW 6 9 29.97 1015 10 16.09344 0 0
6:55 pm 18:55 Clear 50 10 36 2 58 58 SSW 6 9 29.94 1014 10 16.09344 0 0
7:15 pm 19:15 Clear 52 11 36 2 54 54 SSW 6 9 29.94 1014 10 16.09344 0 0
7:35 pm 19:35 Clear 52 11 34 1 50 50 SSW 5 7 29.94 1014 10 16.09344 0 0
7:55 pm 19:55 Clear 50 10 36 2 58 58 Calm 29.94 1014 10 16.09344 0 0
8:15 pm 20:15 Clear 50 10 36 2 58 58 SSW 3 6 29.94 1014 10 16.09344 0 0
8:35 pm 20:35 Clear 46 8 36 2 66 66 WSW 3 6 29.97 1015 10 16.09344 0 0
8:55 pm 20:55 Clear 46 8 34 1 62 62 Calm 29.94 1014 10 16.09344 0 0
9:15 pm 21:15 Clear 46 8 36 2 66 66 WSW 5 7 29.94 1014 10 16.09344 0 0
9:35 pm 21:35 Clear 46 8 36 2 66 66 SW 5 7 29.94 1014 10 16.09344 0 0
9:55 pm 21:55 Clear 43 6 36 2 76 76 SSW 5 7 29.91 1013 10 16.09344 0 0
10:15 pm 22:15 Clear 43 6 36 2 76 76 SSW 3 6 29.91 1013 10 16.09344 0 0
10:35 pm 22:35 Clear 46 8 36 2 66 66 Calm 29.91 1013 10 16.09344 0 0
10:55 pm 22:55 Clear 41 5 36 2 81 81 Calm 29.91 1013 10 16.09344 0 0
11:15 pm 23:15 Clear 43 6 36 2 76 76 SSW 5 7 29.91 1013 10 16.09344 0 0
11:35 pm 23:35 Clear 43 6 36 2 76 76 WSW 3 6 29.88 1012 10 16.09344 0 0
11:55 pm 23:55 Clear 37 3 36 2 93 93 W 6 9 29.88 1012 10 16.09344 0 0

Powered by AerisWeather